{"data":{"norad_id":64086,"intl_designator":"2025-107Y","name":"STARLINK-34132","alt_names":[],"object_type":"PAYLOAD","status":"ACTIVE","operator":null,"country":"US","launch_date":"2025-05-21","launch_site_code":"AFETR","launch_vehicle":null,"mission":null,"orbit_class":"UNKNOWN","rcs_meters":null,"size_class":null,"mass_kg":null,"dimensions":null,"purposes":["comms"],"wikipedia_slug":null,"has_3d_model":false,"image_url":null,"decayed_at":null,"tle_current":{"epoch":"2026-05-25T05:25:57.415008Z","epoch_age_seconds":65614,"freshness":"FRESH","line1":"1 64086U 25107Y   26145.22635897  .00022477  00000+0  82376-3 0  9999","line2":"2 64086  42.9995 129.4863 0001218 263.4194  96.6519 15.27582393 57797","mean_motion":15.27582393,"eccentricity":0.0001218,"inclination_deg":42.9995,"raan_deg":129.4863,"arg_perigee_deg":263.4194,"mean_anomaly_deg":96.6519,"bstar":0.00082376,"rev_number":5779,"period_min":94.266601042187,"perigee_km":482.20623895239,"apogee_km":483.87762213987,"semimajor_km":6861.1789305461,"source":"CELESTRAK","updated_at":"2026-05-25T13:38:20.262811Z"}}}